Regional Weather Roundup
Issued by NWS Goodland, KS

Home | Current Version | Previous Version | Graphics & Text | Print | Product List | Glossary On
Versions: 1 2 3 4 5 6 7 8 9 10 11 12 13 14 15 16 17 18 19 20 21 22 23 24 25 26 27 28 29 30 31 32 33 34 35 36 37 38 39 40 41 42 43 44 45 46 47 48 49 50
000
ASUS43 KGLD 181859
RWRGLD

GOODLAND FORECAST AREA HOURLY WEATHER ROUNDUP
NATIONAL WEATHER SERVICE GOODLAND KS
100 PM MDT FRI AUG 18 2017

...OFFICIAL OBSERVATIONS...

CITY           SKY/WX    TMP DP  RH WIND       PRES   REMARKS
GOODLAND KS    SUNNY     84  56  38 N13       30.09F
HILL CITY KS   SUNNY     85  65  51 N10       30.00F
IMPERIAL NEB   SUNNY     84  49  29 NW5       30.08F
MCCOOK NEB     SUNNY     87  58  37 NE9       30.03S
AKRON CO       SUNNY     81  44  27 N3        30.17F
BURLINGTON CO  SUNNY     84  54  35 NE13      30.13F
LIMON CO       SUNNY     82  49  31 N6        30.21F
$$

...UNOFFICIAL OBSERVATIONS...

CITY           SKY/WX    TMP DP  RH WIND       PRES   REMARKS
LENORA KS        N/A     82  32  16 CALM        N/A
NORTON KS      SUNNY     84  54  34 N9        30.01S
SHARON SPRINGS   N/A     84  63  49 NW6         N/A
TRENTON NEB      N/A     84  32  15 N5          N/A
KIT CARSON CO    N/A     84  53  34 MISG        N/A
YUMA CO        FAIR      81  32  17 N5        30.13F
$$



USA.gov is the U.S. government's official web portal to all federal, state and local government web resources and services.